Lafayette, LA

7:19 AM CDT on August 22, 2017 (GMT -0500)
Lafayette Regional

Weather History for KLFT - August, 2014

Change the Weather History Date:

Saturday, August 9, 2014

  Actual Average Record
Temperature  
Mean Temperature 83 °F 84 °F  
Max Temperature 91 °F 93 °F 101 °F (1962)
Min Temperature 74 °F 75 °F 60 °F (1989)
Cooling Degree Days 18 19  
Month to date cooling degree days 163 171  
Year to date cooling degree days 1665 1855  
Since 1 June cooling degree days 1196 1241  
Growing Degree Days 32 (Base 50)    
Moisture  
Dew Point 75 °F    
Average Humidity 81    
Maximum Humidity 97    
Minimum Humidity 64    
Precipitation  
Precipitation 1.87 in 0.15 in 19.63 in (1940)
Month to date precipitation 3.95 1.37  
Year to date precipitation 41.56 37.37  
Sea Level Pressure  
Sea Level Pressure 30.02 in    
Wind  
Wind Speed 5 mph (SSW)    
Max Wind Speed 28 mph    
Max Gust Speed 37 mph    
Visibility 9 miles    
Events Fog , Rain , Thunderstorm    
T = Trace of Precipitation, MM = Missing Value Source: NWS Daily Summary

Daily Weather History Graph

Daily Weather History Graph

Search for Another Location

Airport or City:

Trip Planner

Search our weather history database for the weather conditions in past years. The results will help you decide how hot, cold, wet, or windy it might be!

Date:

Astronomy

Aug. 09, 2014 Rise Set
Actual Time 6:31 AM CDT 7:54 PM CDT
Civil Twilight 6:05 AM CDT 8:20 PM CDT
Nautical Twilight 5:35 AM CDT 8:50 PM CDT
Astronomical Twilight 5:03 AM CDT 9:22 PM CDT
Moon 6:58 PM CDT (8/9) 5:12 AM CDT (8/9)
Length of Visible Light 14h 14m
Length of Day
13h 23m
Waxing Gibbous, 98% of the Moon is Illuminated
Aug 9
Waxing Gibbous
Aug 10
Full
Aug 17
Last Quarter
Aug 25
New
Sep 2
First Quarter

Hourly Weather History & Observations

Time (CDT) Temp. Heat Index Dew Point Humidity Pressure Visibility Wind Dir Wind Speed Gust Speed Precip Events Conditions
12:53 AM 81.0 °F 87.9 °F 77.0 °F 88% 29.99 in 10.0 mi Variable 3.5 mph - N/A   Clear
1:53 AM 80.1 °F 85.4 °F 75.9 °F 87% 29.99 in 10.0 mi SW 3.5 mph - N/A   Clear
2:53 AM 79.0 °F - 75.9 °F 90% 29.99 in 10.0 mi SW 3.5 mph - N/A   Clear
3:53 AM 79.0 °F - 75.9 °F 90% 29.99 in 10.0 mi SSW 4.6 mph - N/A   Clear
4:53 AM 79.0 °F - 75.9 °F 90% 29.99 in 10.0 mi SSW 3.5 mph - N/A   Clear
5:53 AM 79.0 °F - 75.9 °F 90% 30.00 in 10.0 mi Calm Calm - N/A   Clear
6:53 AM 79.0 °F - 75.9 °F 90% 30.01 in 10.0 mi Calm Calm - N/A   Clear
7:53 AM 81.0 °F 87.9 °F 77.0 °F 88% 30.02 in 10.0 mi SSW 4.6 mph - N/A   Partly Cloudy
8:53 AM 84.9 °F 96.6 °F 78.1 °F 80% 30.04 in 10.0 mi SSW 5.8 mph - N/A   Partly Cloudy
9:53 AM 87.1 °F 98.8 °F 77.0 °F 72% 30.05 in 10.0 mi SW 8.1 mph - N/A   Mostly Cloudy
10:33 AM 88.0 °F 100.2 °F 77.0 °F 70% 30.05 in 10.0 mi WSW 9.2 mph - N/A   Mostly Cloudy
10:53 AM 89.1 °F 100.2 °F 75.9 °F 65% 30.06 in 10.0 mi Variable 4.6 mph - N/A   Scattered Clouds
12:53 PM 90.0 °F 100.2 °F 75.0 °F 61% 30.04 in 10.0 mi WSW 9.2 mph - N/A   Mostly Cloudy
1:38 PM 84.9 °F 95.3 °F 77.0 °F 77% 30.02 in 10.0 mi ENE 5.8 mph - 0.00 in Thunderstorm Mostly Cloudy
1:53 PM 87.1 °F 97.3 °F 75.9 °F 69% 30.01 in 10.0 mi East 3.5 mph - 0.00 in Thunderstorm Overcast
2:06 PM 87.8 °F 99.7 °F 77.0 °F 70% 30.01 in 10.0 mi NE 9.2 mph - N/A Thunderstorm Thunderstorm
2:36 PM 78.1 °F - 73.9 °F 87% 30.03 in 1.5 mi South 23.0 mph 32.2 mph 0.18 in Rain , Thunderstorm Heavy Thunderstorms and Rain
2:38 PM 77.0 °F - 73.0 °F 88% 30.03 in 1.0 mi South 25.3 mph 32.2 mph 0.32 in Rain , Thunderstorm Heavy Thunderstorms and Rain
2:45 PM 75.0 °F - 72.0 °F 90% 30.04 in 0.5 mi South 20.7 mph 36.8 mph 0.78 in Fog , Rain , Thunderstorm Heavy Thunderstorms and Rain
2:53 PM 73.9 °F - 71.1 °F 91% 30.04 in 0.5 mi South 16.1 mph - 1.37 in Fog , Rain , Thunderstorm Heavy Thunderstorms and Rain
3:08 PM 75.9 °F - 72.0 °F 87% 30.04 in 2.0 mi SW 12.7 mph - 0.46 in Rain , Thunderstorm Thunderstorms and Rain
3:10 PM 75.9 °F - 72.0 °F 87% 30.03 in 4.0 mi SW 11.5 mph - 0.46 in Rain , Thunderstorm Thunderstorms and Rain
3:20 PM 75.9 °F - 73.0 °F 91% 30.02 in 10.0 mi SSW 6.9 mph - 0.46 in Rain , Thunderstorm Light Rain
3:53 PM 79.0 °F - 73.9 °F 84% 29.99 in 10.0 mi West 12.7 mph - 0.49 in Rain , Thunderstorm Light Rain
4:04 PM 79.0 °F - 75.0 °F 88% 30.00 in 10.0 mi West 10.4 mph - 0.01 in   Mostly Cloudy
4:53 PM 80.1 °F 84.5 °F 73.9 °F 81% 29.98 in 10.0 mi WSW 6.9 mph - 0.01 in   Clear
5:53 PM 82.9 °F 90.8 °F 75.9 °F 79% 29.97 in 10.0 mi West 5.8 mph - N/A   Clear
6:53 PM 84.0 °F 92.6 °F 75.9 °F 76% 29.99 in 10.0 mi West 4.6 mph - N/A   Mostly Cloudy
7:53 PM 82.0 °F 90.2 °F 77.0 °F 85% 30.00 in 10.0 mi Calm Calm - N/A   Clear
8:53 PM 81.0 °F 87.3 °F 75.9 °F 85% 30.00 in 10.0 mi South 4.6 mph - N/A   Partly Cloudy
9:53 PM 78.8 °F - 77.0 °F 94% 30.02 in 10.0 mi Calm Calm - N/A   Clear
10:53 PM 78.8 °F - 75.2 °F 89% 30.03 in 10.0 mi Calm Calm - N/A   Scattered Clouds
11:03 PM 79.0 °F - 75.9 °F 90% 30.03 in 10.0 mi Calm Calm - N/A   Mostly Cloudy
11:11 PM 79.0 °F - 77.0 °F 94% 30.03 in 10.0 mi Calm Calm - N/A   Mostly Cloudy
11:53 PM 79.0 °F - 75.9 °F 90% 30.03 in 10.0 mi ESE 3.5 mph - N/A   Clear